Dobrodošli na spletni strani vremenske postaje Senovo. Vse informacije so informativnega značaja, saj vremenska postaja ni del državne mreže meteoroloških postaj. OBVESTILO: Letni količini padavin navedeni na spletni strani je potrebno prišteti 98,1 mm, zaradi izgube podatkov.


Posebna pozornost v zvezi z vremenskimi dogajanji ni potrebna.    Posebna pozornost v zvezi z vremenskimi dogajanji ni potrebna.

Pogled proti Armezu več informacij Pogled proti Armezu


Lisca več informacij Lisca


Radar strel več informacij blitzortung!


Radar padavin več informacij rain snow radar


Obiščite še:

Template documentation
and downloads

And another site



Weather Underground, zgodovina - Tekstovno

Dnevni povzetek za Avgust 19, 2017 Enote:  Angleško    Metrično   Obe
« Predhodni Dan
Naslednji Dan »
Dnevni Tedenski Mesečni Letni Po meri
  Višja: Nižja: Povprečje:
Temperatura: 80.4 °F 58.6 °F 68.2 °F
Točka rosišča: 66.9 °F 53.2 °F 57.9 °F
Vlažnost: 93 % 51 % 71 %
Hitrost vetra: 6.3 mph 0 mph 2.7 mph
Sunki vetra: 16.3 mph - -
Veter:- - East
Zračni tlak: 30.1 in 29.9 in -
Padavine: 0.07 in    
Historical Graphs
 
 
Tabelarni podarki za Avgust 19, 2017
Čas Temperatura Točka rosišča Zračni tlak Veter Hitrost vetra Sunki vetra Vlažnost Intenziteta padavin (urna)
00:01 64.8 °F 58.8 °F 30 in Calm     81 % 0 in
00:03 64.8 °F 58.8 °F 30 in Calm     81 % 0 in
00:08 64.6 °F 58.6 °F 30 in Calm     81 % 0 in
00:13 64.4 °F 58.5 °F 30 in Calm     81 % 0 in
00:18 64.2 °F 58.3 °F 30 in Calm     81 % 0 in
00:23 64 °F 58.5 °F 30 in Calm     82 % 0 in
00:28 64 °F 58.5 °F 30 in Calm     82 % 0 in
00:33 63.9 °F 58.3 °F 30 in Calm     82 % 0 in
00:38 63.7 °F 58.1 °F 30 in Calm     82 % 0 in
00:43 63.5 °F 58.3 °F 30 in Calm     83 % 0 in
00:48 63.5 °F 57.9 °F 30 in Calm     82 % 0 in
00:53 63.3 °F 58.1 °F 30 in Calm     83 % 0 in
00:58 63.1 °F 57.9 °F 30 in Calm     83 % 0 in
01:03 63.1 °F 57.9 °F 30 in Calm     83 % 0 in
01:08 63 °F 57.7 °F 30 in Calm     83 % 0 in
01:13 62.8 °F 57.6 °F 30 in Calm     83 % 0 in
01:18 62.6 °F 57.7 °F 29.9 in Calm     84 % 0 in
01:23 62.4 °F 57.6 °F 29.9 in Calm     84 % 0 in
01:28 62.4 °F 57.7 °F 29.9 in Calm     85 % 0 in
01:33 62.2 °F 57.7 °F 29.9 in Calm     85 % 0 in
01:38 62.2 °F 57.7 °F 29.9 in Calm     85 % 0 in
01:43 62.1 °F 57.6 °F 29.9 in Calm     85 % 0 in
01:48 61.9 °F 57.4 °F 29.9 in Calm     85 % 0 in
01:53 61.9 °F 57.4 °F 29.9 in Calm     85 % 0 in
01:58 61.9 °F 57.6 °F 29.9 in Calm     86 % 0 in
02:03 61.7 °F 57.6 °F 29.9 in Calm     86 % 0 in
02:08 61.7 °F 57 °F 29.9 in Calm     85 % 0 in
02:13 61.5 °F 57.4 °F 29.9 in Calm     86 % 0 in
02:19 61.3 °F 57.4 °F 29.9 in Calm     87 % 0 in
02:24 61.3 °F 57.4 °F 29.9 in Calm     87 % 0 in
02:29 61.2 °F 56.8 °F 29.9 in Calm     86 % 0 in
02:34 61 °F 56.8 °F 29.9 in Calm     86 % 0 in
02:39 61 °F 57 °F 29.9 in Calm     87 % 0 in
02:44 61 °F 57 °F 29.9 in Calm     87 % 0 in
02:49 60.8 °F 56.8 °F 29.9 in Calm     87 % 0 in
02:54 60.8 °F 56.8 °F 29.9 in Calm     87 % 0 in
02:59 60.6 °F 57 °F 29.9 in Calm     88 % 0 in
03:04 60.4 °F 56.8 °F 29.9 in Calm     88 % 0 in
03:09 60.4 °F 56.8 °F 29.9 in Calm     88 % 0 in
03:14 60.3 °F 56.7 °F 29.9 in Calm     88 % 0 in
03:19 60.3 °F 56.7 °F 29.9 in Calm     88 % 0 in
03:24 60.1 °F 56.5 °F 29.9 in Calm     88 % 0 in
03:29 60.1 °F 56.5 °F 29.9 in Calm     88 % 0 in
03:34 59.9 °F 56.3 °F 29.9 in Calm     88 % 0 in
03:39 59.9 °F 56.3 °F 29.9 in Calm     88 % 0 in
03:44 59.9 °F 56.7 °F 29.9 in Calm     89 % 0 in
03:49 59.7 °F 56.5 °F 29.9 in Calm     89 % 0 in
03:54 59.7 °F 56.5 °F 29.9 in Calm     89 % 0 in
03:59 59.5 °F 56.3 °F 29.9 in Calm     89 % 0 in
04:04 59.5 °F 56.3 °F 29.9 in Calm     89 % 0 in
04:09 59.5 °F 56.7 °F 29.9 in Calm     90 % 0 in
04:19 59.4 °F 56.5 °F 29.9 in Calm     90 % 0 in
04:24 59.4 °F 56.5 °F 29.9 in Calm     90 % 0 in
04:29 59.2 °F 56.1 °F 29.9 in Calm     90 % 0 in
04:34 59.2 °F 56.1 °F 29.9 in Calm     90 % 0 in
04:39 59.2 °F 56.1 °F 29.9 in Calm     90 % 0 in
04:44 59.2 °F 56.1 °F 29.9 in Calm     90 % 0 in
04:49 59 °F 56.1 °F 29.9 in Calm     90 % 0 in
04:54 59 °F 56.5 °F 29.9 in Calm     91 % 0 in
04:59 59 °F 56.5 °F 29.9 in Calm     91 % 0 in
05:04 58.8 °F 56.1 °F 29.9 in Calm     91 % 0 in
05:09 58.8 °F 56.1 °F 29.9 in Calm     91 % 0 in
05:19 58.6 °F 55.9 °F 29.9 in Calm     91 % 0 in
05:21 58.8 °F 56.1 °F 29.9 in Calm     91 % 0 in
05:23 58.8 °F 56.1 °F 29.9 in Calm     91 % 0 in
05:26 58.6 °F 55.9 °F 29.9 in Calm     91 % 0 in
05:31 58.6 °F 56.3 °F 29.9 in Calm     92 % 0 in
05:36 58.6 °F 56.3 °F 29.9 in Calm     92 % 0 in
05:41 58.6 °F 56.3 °F 29.9 in Calm     92 % 0 in
05:46 58.6 °F 56.3 °F 29.9 in Calm     92 % 0 in
05:51 58.6 °F 56.3 °F 29.9 in Calm     92 % 0 in
05:56 58.6 °F 56.3 °F 29.9 in Calm     92 % 0 in
06:01 58.6 °F 56.3 °F 29.9 in Calm     92 % 0 in
06:06 58.6 °F 56.3 °F 29.9 in Calm     92 % 0 in
06:11 58.6 °F 56.3 °F 29.9 in Calm     92 % 0 in
06:16 58.6 °F 56.3 °F 29.9 in Calm     92 % 0 in
06:21 58.6 °F 56.7 °F 29.9 in Calm     93 % 0 in
06:26 58.6 °F 56.7 °F 29.9 in Calm     93 % 0 in
06:31 58.6 °F 56.7 °F 29.9 in Calm     93 % 0 in
06:36 58.6 °F 56.7 °F 29.9 in Calm     93 % 0 in
06:41 58.8 °F 56.8 °F 29.9 in Calm     93 % 0 in
06:45 58.8 °F 56.8 °F 29.9 in Calm     93 % 0 in
06:50 58.8 °F 56.8 °F 29.9 in Calm     93 % 0 in
06:55 59 °F 57 °F 29.9 in Calm     93 % 0 in
07:00 59.2 °F 57.2 °F 29.9 in Calm     93 % 0 in
07:05 59.2 °F 57.2 °F 29.9 in Calm     93 % 0 in
07:06 59.2 °F 57.2 °F 29.9 in Calm     93 % 0 in
07:11 59.5 °F 57.6 °F 29.9 in Calm     93 % 0 in
07:14 59.7 °F 57.7 °F 29.9 in Calm     93 % 0 in
07:19 60.1 °F 57.9 °F 29.9 in Calm     93 % 0 in
07:24 60.4 °F 58.5 °F 29.9 in Calm     93 % 0 in
07:29 60.6 °F 58.6 °F 29.9 in Calm     93 % 0 in
07:34 61 °F 58.8 °F 29.9 in Calm     93 % 0 in
07:39 61.2 °F 59.2 °F 29.9 in Calm     93 % 0 in
07:44 61.7 °F 59.7 °F 29.9 in Calm     93 % 0 in
07:49 62.4 °F 60.4 °F 30 in Calm     93 % 0 in
07:54 63 °F 60.6 °F 30 in Calm     92 % 0 in
07:59 63.5 °F 60.8 °F 30 in Calm     91 % 0 in
08:04 64 °F 61.3 °F 30 in Calm     91 % 0 in
08:09 64.4 °F 61.3 °F 30 in Calm     90 % 0 in
08:14 65.1 °F 62.1 °F 30 in Calm     90 % 0 in
08:19 65.8 °F 62.4 °F 30 in Calm     89 % 0 in
08:24 66.6 °F 63 °F 30 in Calm     88 % 0 in
08:29 67.3 °F 63.7 °F 30 in ESE 0.1 mph 1.6 mph 88 % 0 in
08:34 68 °F 64 °F 30 in ESE 0.1 mph 1.6 mph 87 % 0 in
08:39 68.9 °F 64.6 °F 30 in Calm     86 % 0 in
08:44 69.8 °F 65.1 °F 30 in Calm     85 % 0 in
08:49 70.3 °F 65.3 °F 30 in Calm     84 % 0 in
08:54 70.9 °F 65.1 °F 30 in Calm     82 % 0 in
08:59 71.4 °F 65.3 °F 30 in Calm     81 % 0 in
09:04 72.1 °F 65.3 °F 30 in Calm     79 % 0 in
09:09 72.9 °F 65.7 °F 30 in Calm   2.5 mph 78 % 0 in
09:14 73 °F 65.8 °F 30 in SSW 1 mph 3.4 mph 78 % 0 in
09:19 73 °F 65.8 °F 30 in SW 2.3 mph 3.6 mph 78 % 0 in
09:24 73.2 °F 65.1 °F 30 in SSW 2.2 mph 3.6 mph 76 % 0 in
09:29 73.6 °F 65.5 °F 30 in SSW 2.1 mph 3.1 mph 76 % 0 in
09:34 74.3 °F 65.8 °F 30 in SW 1.7 mph 3.4 mph 75 % 0 in
09:39 75 °F 65.8 °F 30 in WNW 1 mph 3.4 mph 73 % 0 in
09:44 75.9 °F 66.2 °F 30 in South 1.3 mph 3.1 mph 72 % 0 in
09:49 76.8 °F 66.7 °F 30 in SSE 1 mph 3.1 mph 71 % 0 in
09:54 77.9 °F 66.9 °F 30 in SE 1.5 mph 4.9 mph 69 % 0 in
09:59 78.8 °F 66 °F 30 in SE 3.1 mph 8.5 mph 65 % 0 in
10:04 78.8 °F 63.3 °F 30 in ESE 3.6 mph 9.4 mph 59 % 0 in
10:05 78.8 °F 63.3 °F 30 in ESE 3.6 mph 9.4 mph 59 % 0 in
10:09 78.8 °F 63.7 °F 30 in East 3.3 mph 9.4 mph 60 % 0 in
10:14 78.8 °F 62.8 °F 30 in ESE 3.5 mph 10.1 mph 58 % 0 in
10:19 79 °F 62.4 °F 30 in ESE 4.4 mph 10.1 mph 57 % 0 in
10:24 79.2 °F 62.1 °F 30 in ESE 4.3 mph 8.7 mph 56 % 0 in
10:29 79.3 °F 62.8 °F 30 in ESE 3.8 mph 8.7 mph 57 % 0 in
10:35 79.5 °F 63 °F 30 in ESE 3.4 mph 6.3 mph 57 % 0 in
10:40 79.5 °F 61.9 °F 30 in East 2.6 mph 6.3 mph 55 % 0 in
10:45 79.5 °F 62.4 °F 30 in ESE 3.7 mph 8.1 mph 56 % 0 in
10:50 79.7 °F 62.6 °F 30 in ESE 5 mph 8.5 mph 56 % 0 in
10:55 79.7 °F 62.6 °F 30 in ESE 4.1 mph 8.5 mph 56 % 0 in
11:00 79.7 °F 62.6 °F 30 in East 2.9 mph 6 mph 56 % 0 in
11:06 79.5 °F 61.9 °F 30 in ENE 2.9 mph 7.8 mph 55 % 0 in
11:11 79.7 °F 61.5 °F 30 in ENE 3.2 mph 7.8 mph 54 % 0 in
11:16 79.9 °F 61.7 °F 30 in East 2.5 mph 7.8 mph 54 % 0 in
11:21 80.1 °F 61.9 °F 30 in East 1.9 mph 4.3 mph 54 % 0 in
11:26 80.4 °F 62.2 °F 30 in East 2.5 mph 5.8 mph 54 % 0 in
11:31 80.1 °F 61.3 °F 30 in ENE 2.6 mph 5.8 mph 53 % 0 in
11:36 79.7 °F 60.4 °F 30 in NNE 2.5 mph 5.8 mph 52 % 0 in
11:41 79.9 °F 60.6 °F 30 in NE 3.8 mph 9.6 mph 52 % 0 in
11:46 79.9 °F 60.6 °F 30 in NE 3.9 mph 9.6 mph 52 % 0 in
11:51 79.7 °F 61.2 °F 30 in NE 2.5 mph 7.2 mph 53 % 0 in
11:56 79.7 °F 60.4 °F 30 in ENE 2.9 mph 7.6 mph 52 % 0 in
12:01 79.7 °F 61.2 °F 30 in NE 2.8 mph 7.6 mph 53 % 0 in
12:06 79.7 °F 61.2 °F 30 in NE 2.3 mph 6 mph 53 % 0 in
12:11 79.7 °F 61.2 °F 30 in ENE 3.1 mph 6.5 mph 53 % 0 in
12:16 79.9 °F 61.2 °F 30 in ENE 3.7 mph 8.1 mph 53 % 0 in
12:21 79.5 °F 61 °F 30 in ENE 3.5 mph 8.1 mph 53 % 0 in
12:26 79.2 °F 60.1 °F 30 in ENE 3.4 mph 7.8 mph 52 % 0 in
12:31 78.6 °F 59 °F 30 in NNE 4 mph 7.4 mph 51 % 0 in
12:36 78.1 °F 59 °F 30 in North 4.2 mph 8.9 mph 52 % 0 in
12:41 77.7 °F 59.2 °F 30 in North 3.8 mph 8.9 mph 53 % 0 in
12:46 77.5 °F 59.2 °F 30 in North 3.4 mph 7.4 mph 53 % 0 in
12:51 77.4 °F 58.8 °F 30 in NNW 3.5 mph 6.5 mph 53 % 0 in
12:56 77.2 °F 59.2 °F 30 in North 3.6 mph 6.5 mph 54 % 0 in
13:01 77 °F 59.2 °F 30 in NNE 2.9 mph 6.5 mph 54 % 0 in
13:06 76.8 °F 59.4 °F 30 in NE 2.8 mph 6.5 mph 55 % 0 in
13:11 76.8 °F 59.4 °F 30 in NNE 3 mph 6.5 mph 55 % 0 in
13:16 76.5 °F 59.2 °F 30 in North 3.4 mph 8.7 mph 55 % 0 in
13:21 76.3 °F 58.8 °F 30 in North 4 mph 8.7 mph 55 % 0 in
13:26 76.1 °F 58.8 °F 30 in NNE 3.9 mph 8.7 mph 55 % 0 in
13:31 76.1 °F 59.4 °F 30 in ENE 3.3 mph 8.5 mph 56 % 0 in
13:36 76.1 °F 59.4 °F 30 in ENE 2.4 mph 5.6 mph 56 % 0 in
13:41 75.9 °F 59.2 °F 30 in NE 2.7 mph 10.1 mph 56 % 0 in
13:46 75.7 °F 58.8 °F 30 in NE 4.4 mph 10.1 mph 56 % 0 in
13:51 75.7 °F 59.4 °F 30 in NE 5.3 mph 10.5 mph 57 % 0 in
13:56 75.7 °F 59.4 °F 30 in NE 4.8 mph 10.5 mph 57 % 0 in
14:01 75.6 °F 59.4 °F 30 in NE 5.9 mph 13.9 mph 57 % 0 in
14:02 75.6 °F 59.4 °F 30 in NE 6 mph 13.9 mph 57 % 0 in
14:07 75.6 °F 59.4 °F 30 in ENE 5.9 mph 13.9 mph 57 % 0 in
14:12 75.4 °F 59.2 °F 30 in ENE 4.3 mph 10.3 mph 57 % 0 in
14:17 75.4 °F 59.2 °F 30 in ENE 4.4 mph 10.3 mph 57 % 0 in
14:22 75.2 °F 58.8 °F 30 in NE 4.8 mph 10.3 mph 57 % 0 in
14:27 75.2 °F 58.8 °F 30 in NE 5.9 mph 15.2 mph 57 % 0 in
14:32 75.2 °F 58.8 °F 30 in NE 5.6 mph 15.2 mph 57 % 0 in
14:37 75.4 °F 59.2 °F 30 in NE 4.2 mph 10.5 mph 57 % 0 in
14:42 75.4 °F 59.2 °F 30 in ENE 3.9 mph 12.3 mph 57 % 0 in
14:47 75.4 °F 59.2 °F 30 in ENE 5.5 mph 12.3 mph 57 % 0 in
14:52 75.6 °F 58.8 °F 30 in NE 5.9 mph 10.1 mph 56 % 0 in
14:57 75.6 °F 58.3 °F 30 in NE 5.4 mph 11.9 mph 55 % 0 in
15:02 75.6 °F 58.3 °F 30 in NE 4.4 mph 11.9 mph 55 % 0 in
15:07 75.6 °F 57.7 °F 30 in NNE 4.1 mph 8.1 mph 54 % 0 in
15:12 75.6 °F 57.7 °F 30 in ENE 4.1 mph 10.5 mph 54 % 0 in
15:17 75.4 °F 57.6 °F 30 in East 4.2 mph 10.5 mph 54 % 0 in
15:22 75.2 °F 57.4 °F 30 in East 4.4 mph 8.1 mph 54 % 0 in
15:23 75 °F 57.2 °F 30 in East 4.5 mph 8.1 mph 54 % 0 in
15:28 74.7 °F 56.8 °F 30 in ENE 4.9 mph 12.5 mph 54 % 0 in
15:33 74.5 °F 57.4 °F 30 in ENE 5.7 mph 13.2 mph 55 % 0 in
15:38 74.1 °F 57.4 °F 30 in ENE 5.5 mph 13.2 mph 56 % 0 in
15:43 73.8 °F 57.6 °F 30 in ENE 5.8 mph 15.4 mph 57 % 0 in
15:48 73.4 °F 57.7 °F 30 in ENE 5.5 mph 15.4 mph 58 % 0 in
15:53 73 °F 58.3 °F 30 in ENE 4.5 mph 7.8 mph 60 % 0 in
15:58 72.7 °F 58.5 °F 30 in NE 4.2 mph 8.5 mph 61 % 0 in
16:03 72.5 °F 58.3 °F 30 in NE 3.8 mph 12.3 mph 61 % 0 in
16:08 72.7 °F 58.8 °F 30 in NE 3.8 mph 12.3 mph 62 % 0 in
16:13 72.7 °F 59.4 °F 30 in NE 4.5 mph 13.6 mph 63 % 0 in
16:18 72.5 °F 59.2 °F 30 in NE 6.1 mph 13.6 mph 63 % 0 in
16:23 72.5 °F 59.5 °F 30 in NE 6.2 mph 12.1 mph 64 % 0 in
16:28 72.3 °F 59.5 °F 30 in NE 5.6 mph 11 mph 64 % 0 in
16:33 72 °F 59.2 °F 30 in NE 5.2 mph 10.3 mph 64 % 0 in
16:38 72 °F 59.2 °F 30 in NE 4.4 mph 9.8 mph 64 % 0 in
16:43 72 °F 59.5 °F 30 in NE 4.5 mph 10.3 mph 65 % 0 in
16:48 71.8 °F 58.5 °F 30 in NNE 4.1 mph 10.3 mph 63 % 0 in
16:53 71.6 °F 57.9 °F 30 in NNE 4.5 mph 12.8 mph 62 % 0 in
16:58 71.6 °F 57.4 °F 30 in NE 5.4 mph 12.8 mph 61 % 0 in
17:05 71.4 °F 57.4 °F 30 in ENE 4.6 mph 5.8 mph 61 % 0 in
17:06 71.2 °F 57 °F 30 in ENE 5.2 mph 8.5 mph 61 % 0 in
17:07 71.2 °F 56.7 °F 30 in ENE 5.7 mph 8.5 mph 60 % 0 in
17:08 71.2 °F 56.7 °F 30 in ENE 5.3 mph 8.5 mph 60 % 0 in
17:09 71.1 °F 56.5 °F 30 in ENE 5.2 mph 8.5 mph 60 % 0 in
17:10 71.1 °F 56.5 °F 30 in ENE 5 mph 8.5 mph 60 % 0 in
17:11 71.1 °F 56.5 °F 30 in ENE 5.7 mph 10.3 mph 60 % 0 in
17:12 71.1 °F 56.5 °F 30 in ENE 5.6 mph 10.3 mph 60 % 0 in
17:13 70.9 °F 56.3 °F 30 in ENE 5.6 mph 10.3 mph 60 % 0 in
17:14 70.9 °F 56.3 °F 30 in ENE 5.5 mph 10.3 mph 60 % 0 in
17:15 70.9 °F 56.3 °F 30 in ENE 5.5 mph 10.3 mph 60 % 0 in
17:16 70.9 °F 56.3 °F 30 in ENE 5.6 mph 12.3 mph 60 % 0 in
17:17 70.7 °F 55.8 °F 30 in ENE 5.9 mph 12.3 mph 59 % 0 in
17:18 70.7 °F 55.8 °F 30 in ENE 6.2 mph 12.3 mph 59 % 0 in
17:19 70.7 °F 55.8 °F 30 in ENE 6.3 mph 12.3 mph 59 % 0 in
17:20 70.7 °F 55.8 °F 30 in ENE 6.1 mph 12.3 mph 59 % 0 in
17:21 70.7 °F 55.8 °F 30 in ENE 5.9 mph 12.3 mph 59 % 0 in
17:22 70.5 °F 55.6 °F 30 in ENE 5.9 mph 12.3 mph 59 % 0 in
17:23 70.5 °F 55.6 °F 30 in ENE 5.7 mph 12.3 mph 59 % 0 in
17:33 70.5 °F 55.6 °F 30 in NE 5.7 mph 12.3 mph 59 % 0 in
17:38 70.2 °F 55.2 °F 30 in ENE 5.4 mph 11 mph 59 % 0 in
17:43 70 °F 55.6 °F 30 in ENE 5 mph 10.1 mph 60 % 0 in
17:48 69.8 °F 55.2 °F 30 in ENE 4.3 mph 10.5 mph 60 % 0 in
17:53 69.6 °F 55.6 °F 30 in ENE 4.9 mph 14.1 mph 61 % 0 in
17:58 69.4 °F 55.9 °F 30 in NE 5.7 mph 14.1 mph 62 % 0 in
18:03 69.3 °F 56.1 °F 30 in NE 5.3 mph 10.5 mph 63 % 0 in
18:09 69.1 °F 55.9 °F 30 in ENE 4.7 mph 8.5 mph 63 % 0 in
18:14 69.1 °F 55.9 °F 30 in ENE 3.6 mph 8.5 mph 63 % 0 in
18:19 69.1 °F 55.9 °F 30 in NE 2.1 mph 4.7 mph 63 % 0 in
18:24 68.9 °F 55.8 °F 30 in NE 1.8 mph 5.6 mph 63 % 0 in
18:29 68.9 °F 55.8 °F 30 in ENE 2.2 mph 5.6 mph 63 % 0 in
18:34 68.7 °F 55.6 °F 30 in NE 2.1 mph 5.4 mph 63 % 0 in
18:39 68.7 °F 55.6 °F 30 in NNE 2.8 mph 6 mph 63 % 0 in
18:44 68.5 °F 55.4 °F 30 in NNE 3.6 mph 8.9 mph 63 % 0 in
18:49 68.4 °F 55.2 °F 30 in NE 3.2 mph 8.9 mph 63 % 0 in
18:54 68.2 °F 55.6 °F 30 in ENE 2.7 mph 7.6 mph 64 % 0 in
18:59 68 °F 55.4 °F 30 in NE 3.7 mph 7.6 mph 64 % 0 in
19:04 68 °F 55.8 °F 30 in ENE 3.9 mph 7.4 mph 65 % 0 in
19:09 67.8 °F 55.6 °F 30 in East 3.5 mph 8.5 mph 65 % 0 in
19:10 67.8 °F 55.6 °F 30 in East 3.6 mph 8.5 mph 65 % 0 in
19:15 67.8 °F 55.2 °F 30 in NE 3.9 mph 10.7 mph 64 % 0 in
19:20 67.6 °F 55 °F 30 in NNE 5 mph 10.7 mph 64 % 0 in
19:25 67.6 °F 55.6 °F 30 in NE 5.5 mph 12.5 mph 65 % 0 in
19:30 67.6 °F 55.6 °F 30 in NE 5.2 mph 12.5 mph 65 % 0 in
19:35 67.5 °F 55.2 °F 30 in NE 5.2 mph 11 mph 65 % 0 in
19:40 67.5 °F 55.2 °F 30 in ENE 5 mph 12.3 mph 65 % 0 in
19:45 67.5 °F 54.9 °F 30 in NE 4.8 mph 12.3 mph 64 % 0 in
19:50 67.5 °F 54.9 °F 30 in NE 4.7 mph 11.9 mph 64 % 0 in
19:55 67.5 °F 54.3 °F 30 in NE 4.8 mph 11.9 mph 63 % 0 in
20:00 67.5 °F 54 °F 30 in NE 4.3 mph 9.4 mph 62 % 0 in
20:05 67.3 °F 53.8 °F 30 in NE 5.2 mph 16.3 mph 62 % 0 in
20:10 67.3 °F 53.4 °F 30 in NE 6.3 mph 16.3 mph 61 % 0 in
20:15 67.3 °F 53.4 °F 30 in NE 5.4 mph 13.2 mph 61 % 0 in
20:20 67.1 °F 53.6 °F 30 in ENE 3.9 mph 7.6 mph 62 % 0 in
20:25 66.9 °F 53.4 °F 30 in ENE 2.9 mph 8.5 mph 62 % 0 in
20:30 66.7 °F 53.2 °F 30 in NE 3.2 mph 8.5 mph 62 % 0 in
20:35 66.7 °F 53.2 °F 30 in NE 3.5 mph 5.8 mph 62 % 0 in
20:40 66.7 °F 53.2 °F 30 in NE 3.3 mph 6.7 mph 62 % 0 in
20:45 66.7 °F 53.8 °F 30 in NE 3.3 mph 7.6 mph 63 % 0 in
20:50 66.6 °F 54 °F 30.1 in NNE 3.2 mph 7.6 mph 64 % 0 in
20:55 66.4 °F 54.3 °F 30.1 in ENE 3.3 mph 7.4 mph 65 % 0 in
21:00 66.4 °F 54.3 °F 30.1 in ENE 4 mph 8.1 mph 65 % 0 in
21:06 66.2 °F 54.1 °F 30.1 in ENE 3.7 mph 10.3 mph 65 % 0 in
21:11 66 °F 54.3 °F 30.1 in East 2.7 mph 10.3 mph 66 % 0 in
21:16 66 °F 54.3 °F 30.1 in East 3.9 mph 13 mph 66 % 0 in
21:21 66.2 °F 53.8 °F 30 in ENE 5.5 mph 13 mph 64 % 0 in
21:26 66.2 °F 54.1 °F 30 in ENE 5.1 mph 8.7 mph 65 % 0 in
21:31 66.2 °F 54.1 °F 30 in ENE 4.7 mph 8.5 mph 65 % 0 in
21:36 66.2 °F 54.1 °F 30.1 in ENE 5.2 mph 12.8 mph 65 % 0 in
21:41 66.2 °F 54.1 °F 30.1 in ENE 6 mph 15.7 mph 65 % 0 in
21:46 66.2 °F 54.1 °F 30.1 in ENE 5.9 mph 15.7 mph 65 % 0 in
21:51 66 °F 54 °F 30.1 in ENE 4 mph 15.4 mph 65 % 0 in
21:56 65.8 °F 54.1 °F 30.1 in ESE 2.2 mph 4.9 mph 66 % 0 in
22:01 65.8 °F 54.7 °F 30.1 in East 3.4 mph 7.2 mph 67 % 0 in
22:06 65.8 °F 54.7 °F 30 in East 3.8 mph 9.8 mph 67 % 0 in
22:11 65.8 °F 55 °F 30 in ENE 4 mph 9.8 mph 68 % 0 in
22:16 66 °F 55.2 °F 30 in East 5 mph 10.1 mph 68 % 0 in
22:21 66 °F 55.2 °F 30.1 in East 4.5 mph 10.1 mph 68 % 0 in
22:26 66 °F 55.2 °F 30.1 in East 4 mph 8.7 mph 68 % 0 in
22:31 66.2 °F 55.2 °F 30.1 in East 3.8 mph 8.7 mph 68 % 0 in
22:36 66 °F 55.6 °F 30.1 in SE 3.6 mph 7.2 mph 69 % 0 in
22:41 66 °F 55.6 °F 30.1 in SSE 3.5 mph 5.8 mph 69 % 0 in
22:46 66 °F 55.6 °F 30.1 in ESE 3.8 mph 7.2 mph 69 % 0 in
22:51 66 °F 55.9 °F 30.1 in East 4.5 mph 8.1 mph 70 % 0 in
22:56 65.8 °F 55.8 °F 30.1 in East 4.8 mph 10.7 mph 70 % 0 in
23:01 65.7 °F 55.6 °F 30.1 in ENE 4.7 mph 10.7 mph 70 % 0 in
23:06 65.7 °F 55.9 °F 30.1 in ENE 4.8 mph 9.4 mph 71 % 0 in
23:11 65.7 °F 55.9 °F 30.1 in East 5.5 mph 10.1 mph 71 % 0 in
23:16 65.7 °F 55.9 °F 30.1 in East 5.1 mph 10.1 mph 71 % 0 in
23:21 65.7 °F 55.9 °F 30.1 in East 5.6 mph 13 mph 71 % 0.01 in
23:26 65.7 °F 55.6 °F 30.1 in NE 5.9 mph 13 mph 70 % 0.01 in
23:31 65.7 °F 55.6 °F 30.1 in ENE 4.4 mph 7.8 mph 70 % 0.01 in
23:36 65.7 °F 55.2 °F 30 in SE 3.6 mph 6.5 mph 69 % 0.01 in
23:41 65.7 °F 55.6 °F 30 in SE 3.7 mph 6.5 mph 70 % 0.01 in
23:46 65.7 °F 55.6 °F 30 in SE 5.4 mph 9.8 mph 70 % 0.01 in
23:51 65.1 °F 55.9 °F 30.1 in SW 5.6 mph 9.8 mph 72 % 0.03 in
23:56 64.8 °F 55.9 °F 30.1 in West 3.9 mph 7.2 mph 73 % 0.07 in
Vremenska postaja Senovo
Podatki zbrani iz Weather Underground - 3 mb

Script developed by  Jim McMurry - jmcmurry@mwt.net Adapted for the template by  Wim van der Kuil - Leuven-Template.eu

Vremenski podatki so objavljeni na:

WeatherCloud

Weather Underground

AWEKAS

HAMweather, WeatherForYou, PWS Weather

MapView

Geostik

Slovenia weather network

Oprema, ki se uporablja:

Vremenski program
Cumulus

Cumulus